www.pogodaiklimat.ru

Погода и климат >> Архив погоды >> Индия >> Телингана >> Хайдарабад


ПОГОДА в Хайдарабаде

  • Прогноз погоды в Хайдарабаде
  • Монитор погоды в Хайдарабаде

АРХИВ ПОГОДЫ в Хайдарабаде

Время (UTC), дата Ветер
(напр.,м/с)
 
Видим.   Явления Облачность Т
(С)
Тd
(С)
f
(%)
Тe
(С)
Тes
(С)
Комфортность P
(гПа)
Po
(гПа)
Тmin
(С)
Tmax
(С)
R
(мм)
R24
(мм)
S
(см)
21 19.03 В 2 4000 м мгла 3/0
[Ci fib]
+26.0 +20.0 70 +32 +32 очень
душно
1007.3 947.3
00 20.03 ЮВ 3 4000 м мгла 8/5 600 м
[Sc Ci fib]
+23.6 +20.9 85 +30 +30 очень
душно
1007.7 947.4
03 20.03 ЮВ 2 4000 м мгла ясно +25.6 +21.2 77 +32 +39 очень
душно
1011.3 951.1 +22.7 +37.4
06 20.03 ЮВ 2 4000 м мгла ясно +32.8 +19.2 45 +38 +59 опасность
солнечного
удара
1009.5 950.8
09 20.03 ЮВ 3 10 км 6/6 600 м
[Cu Sc]
+35.4 +15.4 30 +37 +42 очень
душно
1006.2 948.2
12 20.03 ЮВ 3 10 км 5/5 600 м
[Cu Sc]
+32.6 +17.1 40 +36 +37 очень
душно
1005.0 946.6 +36.4
15 20.03 В 2 4000 м мгла ясно +30.0 +18.2 49 +35 +35 очень
душно
1008.5 949.2
18 20.03 ЮВ 2 4000 м мгла ясно +26.4 +20.2 69 +33 +33 очень
душно
1009.5 949.6
21 20.03 В 2 4000 м мгла ясно +24.6 +20.7 79 +31 +31 очень
душно
1008.6 948.4
00 21.03 ЮВ 2 4000 м мгла 3/0
[Ci fib]
+23.8 +20.8 83 +30 +30 очень
душно
1010.0 949.5
03 21.03 ЮВ 2 4000 м мгла 3/0
[Ci fib]
+25.0 +21.1 79 +32 +38 очень
душно
1012.5 952.1 +22.5 +36.4
06 21.03 ЮВ 2 4000 м мгла ясно +32.2 +20.2 49 +39 +60 опасность
солнечного
удара
1010.9 952.1
09 21.03 ЮВ 2 10 км 4/4 600 м
[Cu Sc]
+36.0 +15.0 29 +38 +46 очень
душно
1006.9 948.9
12 21.03 ЮВ 2 10 км 8/8 600 м
[Cu Sc]
+35.4 +13.6 27 +36 +36 очень
жарко
1006.4 948.4 +36.9
15 21.03 ЮВ 2 4000 м ясно +30.2 +16.3 43 +33 +33 душно 1009.4 950.3
18 21.03 ЮВ 2 4000 м мгла 4/1 600 м
[Sc Ac trans]
+27.0 +18.2 59 +32 +32 очень
душно
1011.7 951.7
21 21.03 штиль 0 4000 м мгла 4/1 600 м
[Sc Ac trans]
+24.6 +17.8 66 +29 +29 душно 1010.1 949.8
00 22.03 ЮВ 2 4000 м мгла ясно +24.0 +19.1 74 +29 +29 душно 1010.9 950.4
03 22.03 штиль 0 4000 м мгла 4/0
[Ci fib]
+26.2 +19.9 68 +32 +40 очень
душно
1013.3 953.2 +22.9 +36.9
06 22.03 нст 1 10 км 4/0
[Ci fib]
+33.2 +17.5 39 +37 +58 опасность
солнечного
удара
1011.6 953.0
09 22.03 ЮВ 2 10 км 5/5 600 м
[Cu Sc]
+36.2 +16.2 31 +39 +46 очень
душно
1007.3 949.4
12 22.03 ЮВ 2 10 км 4/4 600 м
[Cu Sc]
+35.0 +17.7 36 +39 +39 очень
душно
1006.8 948.7 +37.2
15 22.03 ЮВ 2 4000 м мгла 3/0
[Ci fib]
+30.2 +18.5 50 +35 +35 очень
душно
1010.0 950.9
18 22.03 ЮВ 2 4000 м мгла 3/0
[Ci fib]
+28.6 +18.0 53 +33 +33 очень
душно
1011.3 951.7
21 22.03 штиль 0 4000 м мгла 3/0
[Ci fib]
+26.6 +19.7 66 +32 +32 очень
душно
1009.8 949.9
00 23.03 штиль 0 4000 м мгла 3/0
[Ci fib]
+25.8 +19.8 69 +31 +31 очень
душно
1010.1 950.0
03 23.03 нст 1 4000 м мгла 3/0 600 м
[Ci fib]
+27.8 +20.1 63 +34 +41 очень
душно
1012.5 952.7 +24.3 +37.2
06 23.03 ЮВ 2 10 км ясно +34.0 +17.9 38 +38 +59 опасность
солнечного
удара
1010.9 952.3
09 23.03 нст 1 10 км 6/5 600 м
[Cu Sc Ac trans]
+37.0 +14.3 26 +38 +45 душно 1007.2 949.3
12 23.03 ЮВ 2 10 км 5/4 600 м
[Cu Sc Ci fib]
+35.0 +16.9 34 +38 +38 очень
душно
1006.9 948.8 +37.8
15 23.03 штиль 0 10 км 4/1 600 м
[Sc Ci fib]
+31.6 +17.3 42 +35 +35 очень
душно
1008.8 950.0
18 23.03 ЮВ 2 4000 м мгла 4/1 600 м
[Sc Ci fib]
+29.8 +14.2 39 +32 +32 душно 1010.1 950.8
21 23.03 штиль 0 4000 м мгла 3/0
[Ci fib]
+27.2 +18.7 60 +32 +32 очень
душно
1009.0 949.4
00 24.03 штиль 0 4000 м мгла 3/0 1200 м
[Ci fib]
+26.2 +19.9 68 +32 +32 очень
душно
1009.4 949.5
03 24.03 нст 1 4000 м мгла 5/1 600 м
[Sc Ac trans]
+29.6 +20.2 57 +36 +41 очень
душно
1011.5 952.1 +24.5 +37.8
06 24.03 ЮВ 2 10 км ясно +35.0 +14.8 30 +36 +58 опасность
солнечного
удара
1010.6 952.2
09 24.03 ЮВ 2 4000 м 6/5 600 м
[Cu Sc Ac trans]
+36.6 +12.8 24 +37 +43 очень
жарко
1006.6 948.9
12 24.03 ЮВ 2 4000 м 6/5 600 м
[Cu Sc Ac trans]
+35.6 +14.4 28 +37 +37 душно 1006.0 948.0 +37.6
15 24.03 ЮВ 2 4000 м 4/0
[Ci fib]
+32.0 +17.5 42 +36 +36 очень
душно
1008.4 949.6
18 24.03 ЮВ 3 4000 м мгла 4/0
[Ci fib]
+30.4 +17.0 45 +34 +34 очень
душно
1009.6 950.5
21 24.03 штиль 0 4000 м мгла 3/0
[Ci fib]
+27.6 +19.2 60 +33 +33 очень
душно
1008.8 949.2
00 25.03 штиль 0 4000 м мгла 4/0
[Ci fib]
+26.0 +18.8 65 +31 +31 очень
душно
1009.7 949.6
03 25.03 ЮВ 2 4000 м мгла 3/0
[Ci fib]
+27.0 +18.5 60 +32 +39 очень
душно
1012.3 952.3 +24.7 +37.6
06 25.03 ЮВ 2 10 км ясно +33.6 +17.7 39 +37 +59 опасность
солнечного
удара
1010.6 952.0
09 25.03 ЮВ 2 10 км 4/1 600 м
[Sc Ci fib]
+36.8 +14.0 26 +38 +50 очень
душно
1007.3 949.4
12 25.03 В 3 10 км 3/1 600 м
[Sc Ci fib]
+35.2 +13.3 27 +36 +36 очень
жарко
1006.3 948.3 +37.7
15 25.03 ЮВ 2 4000 м ясно +32.2 +17.0 40 +36 +36 очень
душно
1008.8 950.1
18 25.03 ЮВ 2 4000 м мгла 4/1 600 м
[Sc Ac trans]
+30.0 +17.9 48 +34 +34 очень
душно
1010.1 950.8
21 25.03 штиль 0 4000 м мгла 5/3 600 м
[Sc Ac trans]
+27.4 +17.6 55 +32 +32 очень
душно
1009.3 949.7
00 26.03 штиль 0 4000 м мгла ясно +26.2 +18.6 63 +31 +31 очень
душно
1009.8 949.9
03 26.03 штиль 0 4000 м мгла 3/0
[Ci fib]
+28.4 +18.8 56 +34 +42 очень
душно
1012.2 952.6 +25.3 +37.7
06 26.03 ЮВ 2 10 км 4/0
[Ci fib]
+34.8 +15.8 32 +37 +57 опасность
солнечного
удара
1011.1 952.7
09 26.03 ЮВ 2 10 км 6/6 600 м
[Cu Sc]
+37.6 +14.3 25 +38 +45 очень
жарко
1006.9 949.2
12 26.03 ЮВ 2 10 км 4/4 600 м
[Cu Sc]
+35.0 +16.1 32 +37 +38 очень
душно
1007.5 949.2 +38.2
15 26.03 ЮВ 2 4000 м 3/0
[Ci fib]
+32.0 +16.7 40 +35 +35 очень
душно
1010.6 951.6
18 26.03 ЮВ 2 4000 м мгла 6/3
[Sc Ac trans]
+29.4 +18.6 52 +34 +34 очень
душно
1011.7 952.3

 

Местоположение метеостанции Хайдарабад (Телингана, Индия): широта 17.45 долгота 78.47 высота над уровнем моря 545 м.

В архиве по умолчанию представлена погода в Хайдарабаде за последнюю неделю. Архивные данные за месяц целиком и за предыдущие месяцы, начиная с января 2011 года, Вы можете получить, выбрав интересующий диапазон дат из раскрывающегося списка и нажав кнопку "Ввод!".


*Определитесь, кто Вы:
робот инопланетянин человек

Внимание! Время в таблицах - всемирное. Для получения местного времени необходимо прибавить поправку, которая равна 5.5 ч.

Смотрите также архив погоды в соседних городах и на ближайших метеорологических станциях:

Погода в Медаке (Телингана, Индия) (70 км)
Погода в Махбубнагаре (Телингана, Индия) (93 км)
Погода в Налгонде (Телингана, Индия) (97 км)
Погода в Бидаре (Карнатака, Индия) (112 км)
Погода в Ханамконде (Телингана, Индия) (133 км)
Погода в Низамабаде (Телингана, Индия) (141 км)
Погода в Рентчайнтале (Андхра-Прадеш, Индия) (152 км)
Погода в Аджере (Махараштра, Индия) (159 км)
Погода в Гулбарге (Карнатака, Индия) (172 км)
Погода в Рамагундэме (Телингана, Индия) (178 км)

Пояснения к столбцам:

Ветер - указаны скорость ветра в м/с - средняя за 10 мин, порывы в срок и между сроками (в фигурных скобках) и направление, откуда дует ветер: С - северный, СВ - северо-восточный, В - восточный, ЮВ - юго-восточный, Ю - южный, ЮЗ - юго-западный, З - западный, СЗ - северо-западный.
Видимость - горизонтальная дальность видимости в метрах или километрах. При видимости от 1 до 10 км при отсутствии осадков обычно наблюдается дымка, при ухудшении видимости до 1 км и менее - туман. В сухую погоду видимость может ухудшаться дымом, пылью или мглою.
Явления - указаны атмосферные явления, наблюдавшиеся в срок или в последний час перед сроком; фигурными скобками обозначены явления, наблюдавшиеся между сроками (за 1-3 часа до срока); квадратными скобками обозначены град или гололедные отложения с указанием их диаметра в мм.
Облачность - указаны через наклонную черту общая и нижняя облачность в баллах и высота нижней границы облаков в метрах; квадратными скобками обозначены формы облаков: Ci - перистые, Cs - перисто-слоистые, Cc - перисто-кучевые, Ac - высококучевые, As - высокослоистые, Sc - слоисто-кучевые, Ns - слоисто-дождевые, Cu - кучевые, Cb - кучево-дождевые. Подробнее классификацию облаков см. в Атласе облаков (PDF).
T - Температура воздуха - температура, измеренная на высоте 2 м над землей.
Td - Температура точки росы - температура, при понижении до которой содержащийся в воздухе водяной пар достигнет насыщения.
f - Относительная влажность воздуха - влажноcть воздуха, измеренная на высоте 2 м над землей.
Te - Эффективная температура - температура, которую ощущает одетый по сезону человек в тени. Характеристика душности погоды. При расчете учитывается влияние влажности воздуха и скорости ветра на теплоощущения человека.
Tes - Эффективная температура на солнце - температура, которую ощущает человек, с поправкой на солнечный нагрев. Характеристика знойности погоды. Зависит от высоты солнца над горизонтом, облачности и скорости ветра. Ночью, в пасмурную погоду, а также при ветре 12 м/с и более поправка равна нулю.
P - Атмосферное давление - приведенное к уровню моря атмосферное давление.
Po - Атмосферное давление - измеренное на уровне метеостанции атмосферное давление.
Tmin - Минимальная температура - минимум температуры воздуха на высоте 2 м над землей.
Tmax - Максимальная температура - максимум температуры воздуха на высоте 2 м над землей.
R - Количество осадков - Количество выпавших осадков за период времени, мм. При наведении курсора мыши на число - период времени, за который выпало указанное количество осадков.
R24 - Количество осадков - Количество выпавших осадков за 24 часа, мм.
S - Снежный покров - Высота снежного покрова, см. При наведении курсора мыши на число - состояние снежного покрова и степень покрытия местности в баллах.